Flag for Belgium Weather past 2 weeks in Mechelen, Belgium

Now
70 °F

Passing clouds.


Feels Like: 70 °F
Forecast: 60 / 73 °F
Wind: 3 mph from Southwest

Location: Brussels National Airport

Current Time: Sep 19, 2014 at 8:39:36 PM

Latest Report: Sep 19, 2014 at 7:50 PM


Visibility: N/A

Pressure: 29.89 "Hg

Humidity: 69%

Dew point: 59 °F

Location of MechelenLocation

Historic Weather in Mechelen — Graph

°F

Mechelen temperature yesterday

Maximum temperature yesterday: 72 °F (at 12:50 PM)
Minimum temperature yesterday: 59 °F (at 2:20 AM)
Average temperature yesterday: 65 °F

Past Weeks' High & Low Weather Summary

 TemperatureHumidityPressure
High79 °F (Sep 19, 4:20 PM)100% (Sep 7, 5:50 AM)30.27 "Hg (Sep 7, 5:50 AM)
Low48 °F (Sep 12, 4:50 AM)47% (Sep 17, 3:50 PM)29.80 "Hg (Sep 18, 4:20 AM)
Average62 °F80%30.03 "Hg
* Reported Sep 4 7:20 PM — Sep 19 7:20 PM, Mechelen, Weather by CustomWeather, © 2014

Note: Actual official high and low records may vary slightly from our data, if they occured in-between our weather recording intervals... More about our weather records

Advertising

Mechelen weather history for previous 24 hours

 ConditionsComfort  
Time TempWeatherWind HumidityBarometerVisibility
7:20 PM
Sep 19
73 °FPassing clouds.5 mph65%29.89 "HgN/A
6:50 PM77 °FPassing clouds.6 mph54%29.86 "HgN/A
6:20 PM77 °FPassing clouds.6 mph57%29.86 "HgN/A
5:50 PM77 °FPassing clouds.5 mph57%29.86 "HgN/A
5:20 PM77 °FPassing clouds.5 mph54%29.86 "HgN/A
4:50 PM77 °FPassing clouds.6 mph54%29.86 "HgN/A
4:20 PM79 °FPassing clouds.6 mph51%29.86 "HgN/A
3:50 PM77 °FPassing clouds.5 mph57%29.89 "HgN/A
3:20 PM77 °FPassing clouds.6 mph54%29.89 "HgN/A
2:50 PM77 °FPassing clouds.6 mph54%29.89 "HgN/A
2:20 PM77 °FPassing clouds.3 mph57%29.89 "HgN/A
1:50 PM75 °FPassing clouds.3 mph57%29.89 "HgN/A
1:20 PM75 °FPassing clouds.5 mph57%29.89 "HgN/A
12:50 PM73 °FSunny.2 mph61%29.89 "Hg10 mi
12:20 PM73 °FPassing clouds.3 mph61%29.86 "HgN/A
11:50 AM72 °FSunny.2 mph69%29.86 "Hg10 mi
11:20 AM70 °FSunny.2 mph73%29.89 "Hg10 mi
10:50 AM68 °FPassing clouds.3 mph78%29.89 "HgN/A
10:20 AM68 °FPassing clouds.3 mph78%29.89 "HgN/A
9:50 AM64 °FPassing clouds.5 mph83%29.86 "HgN/A
9:20 AM63 °FPassing clouds.6 mph88%29.86 "HgN/A
8:50 AM59 °FPassing clouds.6 mph94%29.86 "Hg5 mi
8:20 AM59 °FPassing clouds.6 mph94%29.86 "Hg5 mi
7:50 AM59 °FPassing clouds.5 mph88%29.86 "Hg5 mi
7:20 AM59 °FFog.3 mph88%29.83 "Hg6 mi
6:50 AM59 °FFog.3 mph94%29.83 "Hg6 mi
6:20 AM59 °FFog.5 mph94%29.83 "Hg6 mi
5:50 AM57 °FFog.3 mph94%29.83 "Hg4 mi
5:20 AM57 °FFog.1 mph100%29.83 "Hg4 mi
4:50 AM59 °FClear.1 mph94%29.83 "Hg6 mi
4:20 AM59 °FFog.5 mph94%29.83 "Hg5 mi
3:50 AM59 °FFog.2 mph94%29.83 "Hg4 mi
3:20 AM59 °FFog.2 mph100%29.83 "Hg4 mi
2:50 AM61 °FFog.No wind94%29.83 "Hg4 mi
2:20 AM61 °FLight fog.1 mph94%29.83 "Hg3 mi
1:50 AM61 °FFog.1 mph94%29.83 "Hg4 mi
1:20 AM61 °FFog.2 mph94%29.83 "Hg3 mi
12:50 AM61 °FFog.1 mph94%29.83 "Hg3 mi
12:20 AM63 °FFog.1 mph94%29.83 "Hg4 mi
11:50 PM
Sep 18
63 °FClear.1 mph94%29.83 "Hg5 mi
11:20 PM63 °FClear.2 mph94%29.83 "Hg10 mi
10:50 PM64 °FClear.5 mph88%29.83 "Hg10 mi
10:20 PM63 °FPassing clouds.5 mph94%29.83 "HgN/A
9:50 PM64 °FSprinkles. Passing clouds.No wind94%29.83 "HgN/A
9:20 PM64 °FPassing clouds.1 mph94%29.83 "HgN/A
8:50 PM66 °FPassing clouds.3 mph88%29.83 "HgN/A
8:20 PM66 °FPassing clouds.2 mph88%29.80 "HgN/A
Weather by CustomWeather, © 2014

See weather overviewHow to use our weather pages